| time (UTC) | temp F | wind direction | speed knots | gust knots | rain 1hr in | rain 24hr in | rain mn in | humidity % | barometer mb |
| 20260902033051 | 80 | 107 | 0.0 | 0.0 | 0.00 | 0.00 | 0.00 | 76 | 1014.0 |
| 20260902031543 | 81 | 107 | 0.0 | 0.0 | 0.00 | 0.00 | 0.00 | 75 | 1014.0 |
| 20260902030047 | 81 | 107 | 0.0 | 0.0 | 0.00 | 0.00 | 0.00 | 75 | 1014.0 |
| 20260902024543 | 81 | 107 | 0.0 | 0.0 | 0.00 | 0.00 | 0.00 | 74 | 1014.1 |
| 20260902023046 | 82 | 107 | 0.0 | 0.0 | 0.00 | 0.00 | 0.00 | 74 | 1013.9 |
| 20260902021548 | 82 | 107 | 0.0 | 0.0 | 0.00 | 0.00 | 0.00 | 74 | 1013.8 |
| 20260902020041 | 83 | 107 | 0.0 | 0.0 | 0.00 | 0.00 | 0.00 | 72 | 1013.6 |
| 20260902014547 | 83 | 107 | 0.0 | 0.0 | 0.00 | 0.00 | 0.00 | 72 | 1013.5 |
| 20260902013040 | 83 | 107 | 0.0 | 0.0 | 0.00 | 0.00 | 0.00 | 71 | 1013.3 |
| 20260902011540 | 84 | 107 | 0.0 | 0.0 | 0.00 | 0.00 | 0.00 | 70 | 1013.2 |
| 20260902010039 | 84 | 107 | 0.0 | 0.0 | 0.00 | 0.00 | 0.00 | 69 | 1012.8 |
| 20260902004541 | 84 | 107 | 0.0 | 0.0 | 0.00 | 0.00 | 0.00 | 69 | 1012.7 |
| 20260902003042 | 84 | 107 | 0.0 | 0.0 | 0.00 | 0.00 | 0.00 | 68 | 1012.4 |
| 20260902001538 | 85 | 107 | 0.0 | 0.0 | 0.00 | 0.00 | 0.00 | 67 | 1012.3 |
| 20260902000038 | 86 | 107 | 0.0 | 0.0 | 0.00 | 0.00 | 0.00 | 66 | 1012.3 |
| 20260901234537 | 87 | 107 | 0.0 | 0.0 | 0.00 | 0.00 | 0.00 | 65 | 1012.2 |
| 20260901233037 | 87 | 107 | 0.0 | 0.0 | 0.00 | 0.00 | 0.00 | 63 | 1012.3 |
| 20260901231537 | 88 | 107 | 0.0 | 0.0 | 0.00 | 0.00 | 0.00 | 63 | 1012.3 |
| 20260901230037 | 89 | 107 | 0.0 | 0.0 | 0.00 | 0.00 | 0.00 | 61 | 1012.3 |
| 20260901224532 | 90 | 107 | 0.0 | 0.0 | 0.00 | 0.00 | 0.00 | 60 | 1012.6 |
| 20260901223030 | 90 | 107 | 0.0 | 0.0 | 0.00 | 0.00 | 0.00 | 55 | 1012.8 |
| 20260901221533 | 91 | 107 | 0.0 | 0.0 | 0.00 | 0.00 | 0.00 | 54 | 1012.8 |
| 20260901220053 | 91 | 107 | 0.0 | 0.0 | 0.00 | 0.00 | 0.00 | 52 | 1012.8 |
| 20260901214528 | 91 | 106 | 0.0 | 2.6 | 0.00 | 0.00 | 0.00 | 52 | 1012.9 |
| 20260901213057 | 92 | 105 | 0.0 | 2.6 | 0.00 | 0.00 | 0.00 | 52 | 1012.9 |
| 20260901211527 | 92 | 100 | 0.0 | 2.6 | 0.00 | 0.00 | 0.00 | 53 | 1012.9 |
| 20260901210024 | 92 | 99 | 0.0 | 2.6 | 0.00 | 0.00 | 0.00 | 52 | 1013.0 |
| 20260901204533 | 92 | 49 | 0.0 | 0.9 | 0.00 | 0.00 | 0.00 | 53 | 1013.1 |
| 20260901203043 | 92 | 44 | 0.0 | 0.9 | 0.00 | 0.00 | 0.00 | 52 | 1013.2 |
| 20260901201518 | 92 | 49 | 0.0 | 3.5 | 0.00 | 0.00 | 0.00 | 50 | 1013.4 |
| 20260901200018 | 92 | 49 | 0.0 | 3.5 | 0.00 | 0.00 | 0.00 | 51 | 1013.4 |
| 20260901194513 | 92 | 52 | 0.0 | 4.3 | 0.00 | 0.00 | 0.00 | 50 | 1013.6 |
| 20260901193010 | 92 | 55 | 0.9 | 4.3 | 0.00 | 0.00 | 0.00 | 48 | 1013.9 |
| 20260901191510 | 92 | 51 | 0.0 | 3.5 | 0.00 | 0.00 | 0.00 | 48 | 1014.1 |
| 20260901190008 | 92 | 98 | 0.0 | 7.8 | 0.00 | 0.00 | 0.00 | 48 | 1014.1 |
| 20260901184514 | 92 | 48 | 0.0 | 4.3 | 0.00 | 0.00 | 0.00 | 48 | 1014.1 |
| 20260901183005 | 92 | 49 | 0.0 | 5.2 | 0.00 | 0.00 | 0.00 | 49 | 1014.1 |
| 20260901181507 | 93 | 24 | 0.9 | 7.8 | 0.00 | 0.00 | 0.00 | 48 | 1014.2 |
| 20260901180004 | 92 | 33 | 0.0 | 0.9 | 0.00 | 0.00 | 0.00 | 50 | 1014.0 |
| 20260901174503 | 92 | 34 | 0.0 | 2.6 | 0.00 | 0.00 | 0.00 | 51 | 1014.2 |
| 20260901173104 | 92 | 40 | 0.9 | 8.7 | 0.00 | 0.00 | 0.00 | 48 | 1014.4 |
| 20260901171559 | 92 | 89 | 0.0 | 3.5 | 0.00 | 0.00 | 0.00 | 51 | 1014.2 |
| 20260901170106 | 91 | 89 | 0.0 | 3.5 | 0.00 | 0.00 | 0.00 | 55 | 1014.3 |
| 20260901164601 | 91 | 85 | 0.0 | 3.5 | 0.00 | 0.00 | 0.00 | 52 | 1014.5 |
| 20260901163054 | 91 | 80 | 1.7 | 7.8 | 0.00 | 0.00 | 0.00 | 50 | 1014.7 |
| 20260901161552 | 91 | 119 | 0.9 | 7.8 | 0.00 | 0.00 | 0.00 | 52 | 1014.8 |
| 20260901160051 | 90 | 111 | 0.0 | 1.7 | 0.00 | 0.00 | 0.00 | 54 | 1014.9 |
| 20260901154547 | 90 | 108 | 0.0 | 3.5 | 0.00 | 0.00 | 0.00 | 56 | 1015.0 |
| 20260901153041 | 88 | 105 | 0.0 | 8.7 | 0.00 | 0.00 | 0.00 | 61 | 1015.1 |
| 20260901151540 | 86 | 11 | 0.0 | 0.9 | 0.00 | 0.00 | 0.00 | 64 | 1015.5 |
| 20260901150038 | 87 | 11 | 0.0 | 0.9 | 0.00 | 0.00 | 0.00 | 59 | 1015.5 |
| 20260901144535 | 85 | 11 | 0.0 | 0.9 | 0.00 | 0.00 | 0.00 | 62 | 1015.6 |
| 20260901143039 | 81 | 11 | 0.0 | 0.9 | 0.00 | 0.00 | 0.00 | 77 | 1015.6 |
| 20260901141527 | 80 | 11 | 0.0 | 0.9 | 0.00 | 0.00 | 0.00 | 82 | 1015.6 |
| 20260901140040 | 79 | 11 | 0.0 | 0.9 | 0.00 | 0.00 | 0.00 | 86 | 1015.5 |
| 20260901134524 | 77 | 11 | 0.0 | 0.0 | 0.00 | 0.00 | 0.00 | 89 | 1015.6 |
| 20260901133020 | 76 | 11 | 0.0 | 2.6 | 0.00 | 0.00 | 0.00 | 90 | 1015.8 |
| 20260901131518 | 76 | 11 | 0.0 | 0.9 | 0.00 | 0.00 | 0.00 | 91 | 1015.8 |
| 20260901130034 | 76 | 11 | 0.0 | 0.0 | 0.00 | 0.00 | 0.00 | 91 | 1016.0 |
| 20260901124512 | 76 | 11 | 0.0 | 0.0 | 0.00 | 0.00 | 0.00 | 92 | 1016.0 |
| 20260901123019 | 75 | 11 | 0.0 | 0.0 | 0.00 | 0.00 | 0.00 | 92 | 1016.0 |
| 20260901121511 | 75 | 11 | 0.0 | 0.0 | 0.00 | 0.00 | 0.00 | 91 | 1015.9 |
| 20260901120011 | 74 | 11 | 0.0 | 0.0 | 0.00 | 0.00 | 0.00 | 92 | 1015.7 |
| 20260901114507 | 73 | 11 | 0.0 | 0.0 | 0.00 | 0.00 | 0.00 | 91 | 1015.7 |
| 20260901113005 | 73 | 11 | 0.0 | 0.0 | 0.00 | 0.00 | 0.00 | 91 | 1015.4 |
| 20260901111503 | 72 | 11 | 0.0 | 0.0 | 0.00 | 0.00 | 0.00 | 90 | 1015.4 |
| 20260901104558 | 72 | 11 | 0.0 | 0.0 | 0.00 | 0.00 | 0.00 | 90 | 1015.4 |
| 20260901103057 | 72 | 11 | 0.0 | 0.0 | 0.00 | 0.00 | 0.00 | 90 | 1015.4 |
| 20260901101606 | 73 | 11 | 0.0 | 0.0 | 0.00 | 0.00 | 0.00 | 89 | 1015.3 |
| 20260901100057 | 73 | 11 | 0.0 | 0.0 | 0.00 | 0.00 | 0.00 | 89 | 1015.1 |
| 20260901094554 | 73 | 11 | 0.0 | 0.0 | 0.00 | 0.00 | 0.00 | 89 | 1015.2 |
| 20260901093057 | 73 | 11 | 0.0 | 0.0 | 0.00 | 0.00 | 0.00 | 89 | 1015.2 |
| 20260901091556 | 73 | 11 | 0.0 | 0.0 | 0.00 | 0.00 | 0.00 | 89 | 1015.2 |
| 20260901090053 | 73 | 11 | 0.0 | 0.0 | 0.00 | 0.00 | 0.00 | 89 | 1015.2 |
| 20260901084552 | 73 | 11 | 0.0 | 0.0 | 0.00 | 0.00 | 0.00 | 89 | 1015.3 |
| 20260901083051 | 73 | 11 | 0.0 | 0.0 | 0.00 | 0.00 | 0.00 | 88 | 1015.2 |
| 20260901081558 | 73 | 11 | 0.0 | 0.0 | 0.00 | 0.00 | 0.00 | 88 | 1015.2 |
| 20260901080048 | 74 | 11 | 0.0 | 0.0 | 0.00 | 0.00 | 0.00 | 88 | 1015.3 |
| 20260901074546 | 74 | 11 | 0.0 | 0.0 | 0.00 | 0.00 | 0.00 | 88 | 1015.5 |
| 20260901073045 | 74 | 11 | 0.0 | 0.0 | 0.00 | 0.00 | 0.00 | 87 | 1015.6 |
| 20260901071544 | 74 | 11 | 0.0 | 0.0 | 0.00 | 0.00 | 0.00 | 87 | 1015.5 |
| 20260901070043 | 74 | 11 | 0.0 | 0.0 | 0.00 | 0.00 | 0.00 | 87 | 1015.7 |
| 20260901064543 | 74 | 11 | 0.0 | 0.0 | 0.00 | 0.00 | 0.00 | 87 | 1015.7 |
| 20260901063040 | 75 | 11 | 0.0 | 0.0 | 0.00 | 0.00 | 0.00 | 86 | 1015.7 |
| 20260901061539 | 75 | 11 | 0.0 | 0.0 | 0.00 | 0.00 | 0.00 | 86 | 1015.9 |
| 20260901060037 | 75 | 11 | 0.0 | 0.0 | 0.00 | 0.00 | 0.00 | 86 | 1016.0 |
| 20260901054538 | 75 | 11 | 0.0 | 0.0 | 0.00 | 0.00 | 0.00 | 85 | 1016.2 |
| 20260901053052 | 75 | 11 | 0.0 | 0.0 | 0.00 | 0.00 | 0.00 | 85 | 1016.2 |
| 20260901051538 | 76 | 11 | 0.0 | 0.0 | 0.00 | 0.00 | 0.00 | 84 | 1016.3 |
| 20260901050031 | 76 | 11 | 0.0 | 0.0 | 0.00 | 0.00 | 0.00 | 83 | 1016.5 |
| 20260901044529 | 76 | 11 | 0.0 | 0.0 | 0.00 | 0.00 | 0.00 | 82 | 1016.8 |
| 20260901043029 | 76 | 11 | 0.0 | 0.0 | 0.00 | 0.00 | 0.00 | 82 | 1016.7 |
| 20260901041528 | 76 | 11 | 0.0 | 0.0 | 0.00 | 0.00 | 0.00 | 81 | 1016.8 |
| 20260901040028 | 76 | 11 | 0.0 | 0.0 | 0.00 | 0.00 | 0.00 | 80 | 1016.7 |
| 20260901034530 | 77 | 11 | 0.0 | 0.0 | 0.00 | 0.00 | 0.00 | 80 | 1016.7 |